This demonstration page uses our WeatherBlox Daily Observations layout. Learn more.

39.92423, -83.80882

Hourly Observations for May 10, 2016

Temp ( °F °C ) Dew Point ( °F °C ) Humidity (%) Winds ( mph kmh ) Pressure ( in mb ) Visibility ( mi km ) Precip ( " mm )
12:56 am 00:56 Mostly Cloudy 53 11.6 53 11.6 100 100 E 12 19 30.08 1019 10 16.0934 0.01 0.254
1:56 am 01:56 Cloudy 53 11.6 53 11.6 100 100 E 12 19 30.07 1018 9 14.48406 0 0
2:56 am 02:56 Mostly Cloudy with Mist and Fog 53 11.6 53 11.6 100 100 E 10 17 30.06 1018 6 9.65604 0 0
3:56 am 03:56 Mostly Cloudy 53 11.6 53 11.6 100 100 ESE 10 17 30.07 1018 9 14.48406 0 0
4:56 am 04:56 Mostly Cloudy 53 11.6 53 11.6 100 100 ESE 12 19 30.06 1018 10 16.0934 0 0
5:56 am 05:56 Mostly Cloudy 53 11.6 53 11.6 100 100 ESE 9 15 30.07 1018 9 14.48406 0 0
6:56 am 06:56 Sunny with Mist and Fog 53 11.6 53 11.6 100 100 E 12 19 30.06 1018 5 8.0467 0 0
7:56 am 07:56 Mostly Cloudy 55 12.7 55 12.7 100 100 ESE 13 20 30.07 1018 10 16.0934 0 0
8:56 am 08:56 Partly Cloudy 59 15 56 13.3 90 90 ESE 16 26 30.06 1018 10 16.0934 0 0
9:56 am 09:56 Cloudy 60 15.5 57 13.8 90 90 ESE 16 26 30.06 1018 10 16.0934 0 0
10:56 am 10:56 Mostly Cloudy 63 17.2 59 15 87 87 ESE 12 19 30.06 1018 10 16.0934 0 0
11:56 am 11:56 Mostly Sunny 67 19.4 60 15.5 78 78 SE 14 22 30.04 1017 10 16.0934 0 0
12:56 pm 12:56 Mostly Cloudy with Light Rain 67 19.4 63 17.2 87 87 SE 9 15 30.04 1017 4 6.43736 0.01 0.254
1:56 pm 13:56 Mostly Cloudy 68 20 65 18.3 90 90 SE 8 13 30.01 1016 10 16.0934 0.01 0.254
2:06 pm 14:06 Mostly Cloudy 66 19 64 18 94 94 S 9 15 30 1016 10 16.0934 0 0
2:38 pm 14:38 Cloudy 66 19 64 18 94 94 S 13 20 30 1016 10 16.0934 0.01 0.254
2:56 pm 14:56 Cloudy 68 20 64 17.7 87 87 S 12 19 30.01 1016 10 16.0934 0.01 0.254
3:05 pm 15:05 Cloudy 68 20 64 18 88 88 S 9 15 30 1016 10 16.0934 0 0
3:13 pm 15:13 Cloudy 68 20 64 18 88 88 S 10 17 30 1016 10 16.0934 0 0
3:56 pm 15:56 Mostly Cloudy 69 20.5 65 18.3 87 87 S 8 13 30.01 1016 10 16.0934 0 0
4:24 pm 16:24 Mostly Cloudy 72 22 64 18 78 78 SSW 13 20 30 1016 10 16.0934 0 0
4:56 pm 16:56 Partly Cloudy 72 22.2 63 17.2 73 73 SW 13 20 30 1016 10 16.0934 0 0
5:07 pm 17:07 Mostly Cloudy 72 22 63 17 73 73 SSW 10 17 29.97 1015 10 16.0934 0 0
5:17 pm 17:17 Mostly Sunny 72 22 64 18 78 78 S 10 17 29.97 1015 10 16.0934 0 0
5:56 pm 17:56 Partly Cloudy with Light Rain 69 20.5 65 18.3 87 87 SE 9 15 29.97 1015 10 16.0934 0 0.0254
6:56 pm 18:56 Partly Cloudy 68 20 65 18.3 90 90 SSW 10 17 30.01 1016 10 16.0934 0 0.0254
7:56 pm 19:56 Mostly Sunny 65 18.3 60 15.5 84 84 SSW 6 9 30.02 1017 10 16.0934 0 0
8:56 pm 20:56 Partly Cloudy 61 16.1 60 15.5 96 96 SE 6 9 30.01 1016 10 16.0934 0 0
9:56 pm 21:56 Clear 61 16.1 60 15.5 96 96 SE 6 9 30.02 1017 10 16.0934 0 0
10:56 pm 22:56 Clear 61 16.1 60 15.5 96 96 SSE 8 13 30.02 1017 10 16.0934 0 0
11:56 pm 23:56 Mostly Clear 60 15.5 59 15 97 97 SSE 7 11 30.01 1016 10 16.0934 0 0

Powered by AerisWeather